Regional Weather Roundup
Issued by NWS

Home | Current Version | Previous Version | Text Only | Print | Product List | Glossary Off
Versions: 1 2 3 4 5 6 7 8 9 10 11 12 13 14 15 16 17 18 19 20 21 22 23 24 25 26 27 28 29 30 31 32 33 34 35 36 37 38 39 40 41 42 43 44 45 46 47 48 49 50

286
ASUS45 KPSR 310710
RWRAZ

ARIZONA HOURLY REGIONAL WEATHER ROUNDUP
NATIONAL WEATHER SERVICE PHOENIX AZ
1200 AM MST TUE MAY 31 2016

NOTE: FAIR INDICATES FEW OR NO CLOUDS BELOW 12,000 FEET WITH NO
SIGNIFICANT WEATHER AND/OR OBSTRUCTIONS TO VISIBILITY.

AZZ001>003-036-310800-
NORTHWEST ARIZONA

CITY           SKY/WX    TMP DP  RH WIND       PRES   REMARKS
KINGMAN        PTCLDY    64  25  22 S5        29.91F
$$

AZZ004>008-015-016-018-310800-
NORTH CENTRAL ARIZONA

CITY           SKY/WX    TMP DP  RH WIND       PRES   REMARKS
GRAND CANYON   PTCLDY    40  25  55 CALM      30.12F
WILLIAMS       CLEAR     43  27  52 S9        30.18F
PRESCOTT       CLEAR     56  24  29 S7        30.01F
FLAGSTAFF      CLEAR     41  27  57 CALM      30.13F
PAYSON         PTCLDY    59  14  17 CALM      30.05S
PAGE           CLEAR     69  31  24 W5        29.95S
$$

AZZ009>014-017-310800-
NORTHEAST ARIZONA

CITY           SKY/WX    TMP DP  RH WIND       PRES   REMARKS
WINSLOW        PTCLDY    62  19  19 SW12      30.00S
SAINT JOHNS    CLEAR     56  17  21 S6        30.04S
WINDOW ROCK    PTCLDY    52  23  32 VRB3      30.09S
SHOW LOW       CLEAR     48  10  21 E3        30.10S
$$

AZZ023-310800-
GREATER PHOENIX AREA

CITY           SKY/WX    TMP DP  RH WIND       PRES   REMARKS
PHOENIX        CLEAR     80  26  13 CALM      29.77R
BUCKEYE        CLEAR     72  21  15 NE6       29.79S
LUKE AFB       CLEAR     72  29  20 NW8       29.76S
DEER VALLEY    CLEAR     74  16  11 N7        29.79S
SCOTTSDALE     CLEAR     75  23  14 CALM      29.81S
MESA-GATEWAY   CLEAR     70  28  21 SE3       29.80S
$$

AZZ027-028-310800-
SOUTHWEST MARICOPA COUNTY AND PINAL COUNTY

CITY           SKY/WX    TMP DP  RH WIND       PRES   REMARKS
CASA GRANDE    CLEAR     73  21  14 N7        29.81S
GILA BEND      FAIR      74  29  19 S7        29.76F
$$

AZZ503-504-507>509-310800-
SOUTHEAST ARIZONA

CITY           SKY/WX    TMP DP  RH WIND       PRES   REMARKS
TUCSON         CLEAR     71  21  15 SW7       29.89S
DAVIS-MONTHAN  CLEAR     70  19  14 SW8       29.87F
NOGALES        CLEAR     62  21  20 SE5       29.95F
SIERRA VISTA   CLEAR     62  18  18 W2        30.01S
DOUGLAS        CLEAR     62  26  25 N5        29.98S
SAFFORD        PTCLDY    72  19  13 NW10      29.86S
$$

AZZ020-021-025-026-031-310800-
SOUTHWEST ARIZONA

CITY           SKY/WX    TMP DP  RH WIND       PRES   REMARKS
YUMA           CLEAR     76  45  33 CALM      29.74F
$$

CAZ031-033-041-043-047-048-061-310800-
SOUTHERN CALIFORNIA

CITY           SKY/WX    TMP DP  RH WIND       PRES   REMARKS
DOWNTOWN L.A.  CLOUDY    61  56  83 W3        29.90F
L.A. AIRPORT   CLOUDY    59  55  87 W9        29.91F
SAN DIEGO      CLOUDY    65  56  72 W5        29.92F
BURBANK        CLEAR     58  54  86 VRB3      29.90F
ONTARIO        CLEAR     61  54  77 W6        29.90F
RIVERSIDE      CLEAR     62  54  74 W5        29.90F
PALM SPRINGS   CLEAR     82  50  32 W3        29.77F
EL CENTRO NAS  CLEAR     78  43  28 SW9       29.73F
IMPERIAL       CLEAR     75  47  36 W5        29.71F
BLYTHE         CLEAR     86  39  19 SW13      29.72S
NEEDLES        PTCLDY    90  26  10 NW3       29.73R
$$

NVZ020-UTZ003-310800-
SOUTHERN NEVADA-UTAH

CITY           SKY/WX    TMP DP  RH WIND       PRES   REMARKS
LAS VEGAS      MOCLDY    84  33  16 W6        29.77F
SALT LAKE CITY PTCLDY    62  43  49 SW3       30.05S
$$

NMZ009-TXZ055-310800-
NEW MEXICO-WEST TEXAS

CITY           SKY/WX    TMP DP  RH WIND       PRES   REMARKS
ALBUQUERQUE    CLOUDY    69  33  26 S9G18     29.99S
EL PASO        TSTM      65  59  81 VRB3      30.01R
$$


........................KEY........................
SKY/WX - SKY CONDITION/WEATHER
TMP    - TEMPERATURE IN FAHRENHEIT
DP     - DEW POINT IN FAHRENHEIT
RH     - RELATIVE HUMIDITY IN PERCENT
WIND   - DIRECTION AND SPEED IN MILES PER HOUR (MPH)
VRB    - VARIABLE WIND DIRECTION
PRES   - MEAN SEA LEVEL PRESSURE IN INCHES OF MERCURY
         F - FALLING PRESSURE   R - RISING PRESSURE
         S - STEADY PRESSURE
VSB    - VISIBILITY IN MILES
HX     - HEAT INDEX IN FAHRENHEIT
WCI    - WIND CHILL INDEX IN FAHRENHEIT
TC     - TEMPERATURE IN CELSIUS WHICH IS ALSO KNOWN AS
         TEMPERATURE IN CENTIGRADE
AFB    - AIR FORCE BASE
         LUKE AFB IS LUKE AIR FORCE BASE
         DAVIS-MONTHAN IS DAVIS-MONTHAN AIR FORCE BASE
NAS    - NAVAL AIR STATION
         EL CENTRO NAS IS EL CENTRO NAVAL AIR STATION
N/A    - NOT AVAILABLE





USA.gov is the U.S. government's official web portal to all federal, state and local government web resources and services.